Time,TemperatureF,DewpointF,PressureIn,WindDirection,WindDirectionDegrees,WindSpeedMPH,WindSpeedGustMPH,Humidity,HourlyPrecipIn,Conditions,Clouds,dailyrainin,SolarRadiationWatts/m^2,SoftwareType,DateUTC
2013-09-16 09:05:00,68.7,62.3,29.74,SE,130,0.0,2.0,80,0.00,,,0.00,267,Wunderground v.1.15,2013-09-16 15:05:00,
2013-09-16 09:10:00,68.5,62.4,29.74,SE,130,1.0,1.0,81,0.00,,,0.00,257,Wunderground v.1.15,2013-09-16 15:10:00,
2013-09-16 09:15:00,68.5,63.5,29.74,SE,130,1.0,2.0,84,0.00,,,0.00,281,Wunderground v.1.15,2013-09-16 15:15:00,
2013-09-16 09:20:00,67.9,63.2,29.74,East,98,2.0,4.0,85,0.00,,,0.00,297,Wunderground v.1.15,2013-09-16 15:20:00,
2013-09-16 09:25:00,67.0,63.0,29.74,NNW,347,4.0,7.0,87,0.00,,,0.00,316,Wunderground v.1.15,2013-09-16 15:25:00,
2013-09-16 09:30:00,66.4,62.7,29.74,NW,319,4.0,4.0,88,0.00,,,0.00,378,Wunderground v.1.15,2013-09-16 15:30:00,
2013-09-16 09:35:00,66.4,63.1,29.74,NW,319,3.0,4.0,89,0.00,,,0.00,438,Wunderground v.1.15,2013-09-16 15:35:00,
2013-09-16 09:45:00,66.8,64.1,29.74,NW,321,1.0,3.0,91,0.00,,,0.00,383,Wunderground v.1.15,2013-09-16 15:45:00,
2013-09-16 09:50:00,67.1,64.1,29.74,NW,321,1.0,1.0,90,0.00,,,0.00,568,Wunderground v.1.15,2013-09-16 15:50:00,
2013-09-16 09:55:00,67.2,63.8,29.74,NW,321,1.0,3.0,89,0.00,,,0.00,297,Wunderground v.1.15,2013-09-16 15:55:00,
2013-09-16 10:00:00,67.1,63.1,29.74,NNW,342,2.0,2.0,87,0.00,,,0.00,237,Wunderground v.1.15,2013-09-16 16:00:00,
2013-09-16 10:05:00,66.9,63.2,29.73,North,349,3.0,5.0,88,0.00,,,0.00,192,Wunderground v.1.15,2013-09-16 16:05:00,
2013-09-16 10:10:00,66.7,63.0,29.73,North,349,2.0,2.0,88,0.00,,,0.00,236,Wunderground v.1.15,2013-09-16 16:10:00,
2013-09-16 10:15:00,66.8,63.5,29.73,North,349,1.0,2.0,89,0.00,,,0.00,320,Wunderground v.1.15,2013-09-16 16:15:00,
2013-09-16 10:25:00,67.1,62.8,29.72,North,349,0.0,1.0,86,0.00,,,0.00,425,Wunderground v.1.15,2013-09-16 16:25:00,
2013-09-16 10:30:00,67.3,63.0,29.72,North,349,0.0,1.0,86,0.00,,,0.00,441,Wunderground v.1.15,2013-09-16 16:30:00,
2013-09-16 10:35:00,67.5,63.2,29.72,North,349,1.0,1.0,86,0.00,,,0.00,476,Wunderground v.1.15,2013-09-16 16:35:00,
2013-09-16 10:40:00,67.9,63.2,29.71,North,349,1.0,1.0,85,0.00,,,0.00,482,Wunderground v.1.15,2013-09-16 16:40:00,
2013-09-16 10:45:00,68.1,62.0,29.72,North,349,0.0,1.0,81,0.00,,,0.00,545,Wunderground v.1.15,2013-09-16 16:45:00,
2013-09-16 10:50:00,68.4,62.3,29.71,North,349,0.0,1.0,81,0.00,,,0.00,636,Wunderground v.1.15,2013-09-16 16:50:00,
2013-09-16 10:55:00,69.0,62.9,29.71,North,349,0.0,1.0,81,0.00,,,0.00,751,Wunderground v.1.15,2013-09-16 16:55:00,
2013-09-16 11:05:00,69.6,63.5,29.70,North,360,1.0,5.0,81,0.00,,,0.00,311,Wunderground v.1.15,2013-09-16 17:05:00,
2013-09-16 11:10:00,69.3,62.9,29.70,North,360,2.0,2.0,80,0.00,,,0.00,250,Wunderground v.1.15,2013-09-16 17:10:00,
2013-09-16 11:15:00,69.1,63.4,29.70,North,360,1.0,2.0,82,0.00,,,0.00,236,Wunderground v.1.15,2013-09-16 17:15:00,
2013-09-16 11:20:00,69.1,62.7,29.70,North,360,0.0,1.0,80,0.00,,,0.00,325,Wunderground v.1.15,2013-09-16 17:20:00,
2013-09-16 11:25:00,69.2,63.8,29.70,NNW,338,0.0,2.0,83,0.00,,,0.00,334,Wunderground v.1.15,2013-09-16 17:25:00,
2013-09-16 11:30:00,69.2,64.2,29.69,NNW,338,1.0,1.0,84,0.00,,,0.00,499,Wunderground v.1.15,2013-09-16 17:30:00,
2013-09-16 11:35:00,69.4,64.4,29.69,NNW,338,1.0,3.0,84,0.00,,,0.00,814,Wunderground v.1.15,2013-09-16 17:35:00,
2013-09-16 11:40:00,69.6,64.9,29.69,NNW,328,2.0,3.0,85,0.00,,,0.00,568,Wunderground v.1.15,2013-09-16 17:40:00,
2013-09-16 11:45:00,69.5,64.8,29.68,NNW,331,3.0,3.0,85,0.00,,,0.00,443,Wunderground v.1.15,2013-09-16 17:45:00,
2013-09-16 11:50:00,69.3,64.3,29.68,NW,326,2.0,2.0,84,0.00,,,0.00,399,Wunderground v.1.15,2013-09-16 17:50:00,
2013-09-16 11:55:00,69.3,64.3,29.67,NW,326,1.0,4.0,84,0.00,,,0.00,404,Wunderground v.1.15,2013-09-16 17:55:00,
2013-09-16 12:00:00,69.3,63.9,29.67,NW,326,1.0,2.0,83,0.00,,,0.00,427,Wunderground v.1.15,2013-09-16 18:00:00,
2013-09-16 12:05:00,69.4,64.0,29.67,NW,326,1.0,2.0,83,0.00,,,0.00,341,Wunderground v.1.15,2013-09-16 18:05:00,
2013-09-16 12:10:00,69.3,63.9,29.67,NNW,335,2.0,3.0,83,0.00,,,0.00,279,Wunderground v.1.15,2013-09-16 18:10:00,
2013-09-16 12:15:00,69.1,64.1,29.67,NNW,327,3.0,4.0,84,0.00,,,0.00,221,Wunderground v.1.15,2013-09-16 18:15:00,
2013-09-16 12:20:00,68.9,63.9,29.66,NW,324,3.0,3.0,84,0.00,,,0.00,230,Wunderground v.1.15,2013-09-16 18:20:00,
2013-09-16 12:25:00,68.9,63.9,29.66,NW,324,1.0,3.0,84,1.75,,,0.02,214,Wunderground v.1.15,2013-09-16 18:25:00,
2013-09-16 12:30:00,68.6,64.2,29.66,NW,324,0.0,1.0,86,0.50,,,0.07,190,Wunderground v.1.15,2013-09-16 18:30:00,
2013-09-16 12:35:00,68.1,63.4,29.66,NW,323,1.0,1.0,85,0.18,,,0.08,193,Wunderground v.1.15,2013-09-16 18:35:00,
2013-09-16 12:40:00,67.8,63.5,29.65,NW,323,1.0,1.0,86,0.12,,,0.09,218,Wunderground v.1.15,2013-09-16 18:40:00,
2013-09-16 12:45:00,67.6,63.6,29.65,NW,324,0.0,1.0,87,0.20,,,0.10,269,Wunderground v.1.15,2013-09-16 18:45:00,
2013-09-16 12:50:00,67.6,63.9,29.64,NW,323,0.0,1.0,88,0.07,,,0.10,315,Wunderground v.1.15,2013-09-16 18:50:00,
2013-09-16 12:55:00,67.6,64.2,29.64,NW,324,0.0,1.0,89,0.05,,,0.11,172,Wunderground v.1.15,2013-09-16 18:55:00,
2013-09-16 13:00:00,67.6,64.9,29.64,NW,323,0.0,1.0,91,0.05,,,0.11,207,Wunderground v.1.15,2013-09-16 19:00:00,
2013-09-16 13:05:00,67.3,64.6,29.64,NW,324,1.0,3.0,91,0.05,,,0.11,70,Wunderground v.1.15,2013-09-16 19:05:00,
2013-09-16 13:10:00,66.8,64.1,29.64,North,355,1.0,1.0,91,0.04,,,0.11,33,Wunderground v.1.15,2013-09-16 19:10:00,
2013-09-16 13:15:00,66.3,63.6,29.64,North,355,1.0,1.0,91,0.59,,,0.17,62,Wunderground v.1.15,2013-09-16 19:15:00,
2013-09-16 13:20:00,66.0,63.6,29.64,North,355,0.0,1.0,92,0.96,,,0.20,62,Wunderground v.1.15,2013-09-16 19:20:00,
2013-09-16 13:25:00,65.8,63.4,29.63,North,355,0.0,1.0,92,0.92,,,0.28,114,Wunderground v.1.15,2013-09-16 19:25:00,
2013-09-16 13:30:00,65.3,62.3,29.63,North,355,0.0,1.0,90,0.22,,,0.29,149,Wunderground v.1.15,2013-09-16 19:30:00,
2013-09-16 13:35:00,65.1,62.4,29.63,North,355,0.0,1.0,91,0.10,,,0.29,162,Wunderground v.1.15,2013-09-16 19:35:00,
2013-09-16 13:40:00,65.0,62.3,29.63,North,355,0.0,1.0,91,0.05,,,0.29,169,Wunderground v.1.15,2013-09-16 19:40:00,
2013-09-16 13:45:00,65.0,62.3,29.63,North,355,0.0,1.0,91,0.04,,,0.29,174,Wunderground v.1.15,2013-09-16 19:45:00,
2013-09-16 13:50:00,65.3,63.2,29.63,North,355,0.0,1.0,93,0.00,,,0.29,148,Wunderground v.1.15,2013-09-16 19:50:00,
2013-09-16 13:55:00,65.5,63.1,29.63,North,355,0.0,1.0,92,0.00,,,0.29,181,Wunderground v.1.15,2013-09-16 19:55:00,
2013-09-16 14:00:00,65.7,63.6,29.63,North,355,0.0,1.0,93,0.00,,,0.29,185,Wunderground v.1.15,2013-09-16 20:00:00,
2013-09-16 14:05:00,65.8,63.4,29.63,North,355,0.0,1.0,92,0.30,,,0.31,179,Wunderground v.1.15,2013-09-16 20:05:00,
2013-09-16 14:15:00,65.4,62.7,29.63,NNW,346,0.0,2.0,91,0.69,,,0.45,139,Wunderground v.1.15,2013-09-16 20:15:00,
2013-09-16 14:20:00,65.1,62.4,29.63,NNW,346,0.0,0.0,91,0.89,,,0.49,98,Wunderground v.1.15,2013-09-16 20:20:00,
2013-09-16 14:25:00,64.7,62.0,29.63,NNW,341,0.0,0.0,91,0.85,,,0.54,62,Wunderground v.1.15,2013-09-16 20:25:00,
2013-09-16 14:30:00,64.4,61.7,29.63,NNW,341,0.0,0.0,91,0.66,,,0.57,42,Wunderground v.1.15,2013-09-16 20:30:00,
2013-09-16 14:35:00,64.3,61.9,29.63,NNW,341,0.0,0.0,92,0.17,,,0.59,37,Wunderground v.1.15,2013-09-16 20:35:00,
2013-09-16 14:40:00,64.1,61.7,29.63,NNW,341,0.0,0.0,92,0.40,,,0.61,32,Wunderground v.1.15,2013-09-16 20:40:00,
2013-09-16 14:45:00,63.9,61.5,29.64,NNW,341,0.0,0.0,92,0.23,,,0.63,32,Wunderground v.1.15,2013-09-16 20:45:00,
2013-09-16 14:50:00,63.8,61.4,29.64,NNW,341,1.0,1.0,92,0.75,,,0.65,18,Wunderground v.1.15,2013-09-16 20:50:00,
2013-09-16 14:55:00,63.6,61.2,29.64,NNW,341,1.0,3.0,92,0.69,,,0.69,11,Wunderground v.1.15,2013-09-16 20:55:00,
2013-09-16 15:00:00,62.9,60.5,29.65,NNW,340,2.0,5.0,92,5.43,,,0.76,7,Wunderground v.1.15,2013-09-16 21:00:00,
2013-09-16 15:05:00,62.5,60.1,29.65,NNW,340,3.0,5.0,92,2.37,,,0.95,9,Wunderground v.1.15,2013-09-16 21:05:00,
2013-09-16 15:10:00,62.2,60.2,29.67,NNW,340,1.0,1.0,93,4.09,,,1.17,5,Wunderground v.1.15,2013-09-16 21:10:00,
2013-09-16 15:15:00,62.1,60.1,29.66,NNE,32,0.0,4.0,93,3.81,,,1.41,9,Wunderground v.1.15,2013-09-16 21:15:00,
2013-09-16 15:20:00,62.0,60.3,29.67,NNE,32,1.0,1.0,94,3.25,,,1.63,7,Wunderground v.1.15,2013-09-16 21:20:00,
2013-09-16 15:25:00,61.9,60.2,29.67,NNE,32,1.0,1.0,94,4.50,,,1.88,5,Wunderground v.1.15,2013-09-16 21:25:00,
2013-09-16 15:30:00,61.7,60.0,29.67,NNE,32,0.0,0.0,94,4.65,,,2.09,5,Wunderground v.1.15,2013-09-16 21:30:00,
2013-09-16 15:40:00,61.2,59.5,29.66,NE,34,0.0,0.0,94,1.30,,,2.36,0,Wunderground v.1.15,2013-09-16 21:40:00,
2013-09-16 15:45:00,61.2,59.5,29.66,South,173,1.0,3.0,94,1.07,,,2.46,0,Wunderground v.1.15,2013-09-16 21:45:00,
2013-09-16 15:50:00,61.1,59.4,29.66,South,173,1.0,1.0,94,0.80,,,2.51,5,Wunderground v.1.15,2013-09-16 21:50:00,
2013-09-16 15:55:00,61.1,59.4,29.66,South,173,0.0,1.0,94,0.18,,,2.53,5,Wunderground v.1.15,2013-09-16 21:55:00,
2013-09-16 16:00:00,61.3,59.9,29.66,SSW,192,0.0,1.0,95,0.13,,,2.54,5,Wunderground v.1.15,2013-09-16 22:00:00,
2013-09-16 16:05:00,61.5,60.1,29.66,SSW,193,1.0,1.0,95,0.11,,,2.54,5,Wunderground v.1.15,2013-09-16 22:05:00,
2013-09-16 16:10:00,61.6,60.2,29.66,SSW,193,1.0,1.0,95,0.19,,,2.56,5,Wunderground v.1.15,2013-09-16 22:10:00,
2013-09-16 16:15:00,61.6,60.2,29.67,SSW,193,0.0,1.0,95,0.11,,,2.57,5,Wunderground v.1.15,2013-09-16 22:15:00,
2013-09-16 16:20:00,61.6,59.9,29.67,SSW,193,0.0,0.0,94,0.15,,,2.57,0,Wunderground v.1.15,2013-09-16 22:20:00,
2013-09-16 16:25:00,61.5,60.1,29.67,SSW,193,0.0,0.0,95,0.16,,,2.58,0,Wunderground v.1.15,2013-09-16 22:25:00,
2013-09-16 16:30:00,61.6,60.2,29.67,SSW,193,0.0,0.0,95,0.18,,,2.60,0,Wunderground v.1.15,2013-09-16 22:30:00,
2013-09-16 16:40:00,61.7,60.3,29.69,SSW,193,0.0,5.0,95,0.20,,,2.63,0,Wunderground v.1.15,2013-09-16 22:40:00,
2013-09-16 16:45:00,61.7,60.3,29.69,SSW,193,0.0,5.0,95,0.17,,,2.64,0,Wunderground v.1.15,2013-09-16 22:45:00,
2013-09-16 16:50:00,61.6,59.9,29.69,SSW,193,0.0,0.0,94,0.30,,,2.66,0,Wunderground v.1.15,2013-09-16 22:50:00,
2013-09-16 16:55:00,61.5,59.8,29.69,SSW,193,0.0,0.0,94,0.30,,,2.69,0,Wunderground v.1.15,2013-09-16 22:55:00,
2013-09-16 17:00:00,61.5,59.8,29.69,SSW,193,1.0,1.0,94,0.30,,,2.71,0,Wunderground v.1.15,2013-09-16 23:00:00,
2013-09-16 17:05:00,61.5,59.8,29.69,SSW,193,1.0,1.0,94,0.38,,,2.73,0,Wunderground v.1.15,2013-09-16 23:05:00,
2013-09-16 17:10:00,61.5,59.8,29.70,SSW,193,1.0,1.0,94,0.50,,,2.76,0,Wunderground v.1.15,2013-09-16 23:10:00,
2013-09-16 17:15:00,61.5,59.8,29.70,SSW,193,0.0,1.0,94,0.21,,,2.77,0,Wunderground v.1.15,2013-09-16 23:15:00,
2013-09-16 17:20:00,61.5,59.8,29.71,SSW,193,0.0,0.0,94,0.13,,,2.79,0,Wunderground v.1.15,2013-09-16 23:20:00,
2013-09-16 17:25:00,61.4,59.7,29.71,SSW,193,0.0,0.0,94,0.16,,,2.80,0,Wunderground v.1.15,2013-09-16 23:25:00,
2013-09-16 17:30:00,61.4,59.7,29.71,SSW,193,0.0,0.0,94,0.15,,,2.80,0,Wunderground v.1.15,2013-09-16 23:30:00,
2013-09-16 17:35:00,61.4,59.7,29.72,SSW,193,0.0,0.0,94,0.19,,,2.82,0,Wunderground v.1.15,2013-09-16 23:35:00,